Find Local Weather

World > North America > United States > North Carolina

Richlands, North Carolina Regional Weather

Lat: 34.90N, Lon: 77.55W
Wx Zone: NCZ098
Feedback

Richlands, NC Regional Weather

Expires:201905270000;;513799
ASUS42 KMHX 262325
RWRMHX
WEATHER ROUNDUP FOR EASTERN NORTH CAROLINA
NATIONAL WEATHER SERVICE NEWPORT/MOREHEAD CITY NC
700 PM EDT SUN MAY 26 2019

NOTE: "FAIR" INDICATES FEW OR NO CLOUDS BELOW 12,000 FEET
WITH NO SIGNIFICANT WEATHER AND/OR OBSTRUCTIONS TO VISIBILITY


NCZ011>013-027>030-043-044-078>080-089-090>093-098-270000-
COASTAL PLAIN
  
CITY           SKY/WX    TMP DP  RH WIND       PRES   REMARKS
AHOSKIE        NOT AVBL                                               
CLINTON        FAIR      94  66  40 NW3       29.97S                  
ELIZABETHTOWN  FAIR      95  61  31 NW7       29.97S                  
GOLDSBORO      FAIR      95  60  31 W9        29.95F                  
GREENVILLE     FAIR      90  64  43 W3        29.98S                  
HAVELOCK       LGT RAIN  89  74  60 S8        29.97F                  
KENANSVILLE    FAIR      93  63  36 NW6       29.96F                  
KINSTON        SUNNY     93  59  31 W6        29.97S                  
NEW BERN       FAIR      93  66  40 NW7       29.96F                  
RICHLANDS      FAIR      94  64  37 W3        29.97S                  
ROCKY MOUNT    FAIR      93  60  33 W7        29.96F                  
WASHINGTON     FAIR      93  63  36 NW3       29.95F                  
WHITEVILLE     FAIR      94  64  36 W3        29.97S                  

$$


SKY/WX - Weather  TMP - Temperature  DP - Dew Point  RH - Relative Humidity
WIND - Wind Direction/Speed PRES - Barometric Pressure VSB - Visibility
WCI - Wind Chill Index E13G22 Wind - East Wind 13 mph/Gusts of 22 mph